Regional Weather Roundup
Issued by NWS State College, PA

Home | Current Version | Previous Version | Graphics & Text | Print | Product List | Glossary Off
Versions: 1 2 3 4 5 6 7 8 9 10 11 12 13 14 15 16 17 18 19 20 21 22 23 24 25 26 27 28 29 30 31 32 33 34 35 36 37 38 39 40 41 42 43 44 45 46 47 48 49 50

000
ASUS41 KCTP 201503
RWRCTP

REGIONAL WEATHER ROUNDUP
NATIONAL WEATHER SERVICE STATE COLLEGE PA
1000 AM EST SAT DEC 20 2014

Note: "fair" indicates few or no clouds below 12,000 feet with no
significant weather and/or obstructions to visibility.

* = STATION THAT DOES NOT REPORT PRECIPITATION /E.G. RAIN...SNOW...ETC/
    THUNDER OR FOG.

PAZ002>004-007>009-013>016-020>023-029>032-201600-
WESTERN PENNSYLVANIA

CITY           SKY/WX    TMP DP  RH WIND       PRES   REMARKS
ERIE           CLOUDY    30  20  66 N6        30.30R
MEADVILLE      CLOUDY    28  19  69 N3        30.25S
FRANKLIN*      CLOUDY    27  18  69 N5        30.26R
NEW CASTLE       N/A     27  20  75 CALM      30.29S
BEAVER COUNTY  CLOUDY    27  19  74 CALM      30.27S
BUTLER*        CLOUDY    27  19  74 N5        30.28R
PITTSBURGH INT CLOUDY    27  19  72 NE5       30.27R
PITTSBURGH     CLOUDY    27  15  61 VRB3      30.26R
INDIANA*       CLOUDY    27  19  74 VRB5      30.28S
LATROBE        NOT AVBL
WASHINGTON CO* NOT AVBL
$$

PAZ004>006-010>012-017>019-024>028-033>037-041-042-045-046-049>053-201600-
CENTRAL PENNSYLVANIA

CITY           SKY/WX    TMP DP  RH WIND       PRES   REMARKS
BRADFORD       CLOUDY    21  17  84 N5        30.20F WCI  15
DUBOIS         CLOUDY    24  20  84 N8        30.20F
CLEARFIELD     CLOUDY    24  17  74 N6        30.24F
JOHNSTOWN      CLOUDY    23  17  78 N6        30.17F
ALTOONA        CLOUDY    27  19  72 N5        30.24R
STATE COLLEGE  CLOUDY    27  19  74 NW7       30.25F
WILLIAMSPORT   CLOUDY    32  20  61 NW3       30.30R
SELINSGROVE    CLOUDY    31  20  63 NW7       30.30S
FT INDIANTOWN  CLOUDY    31  20  61 NW3       30.30R
CAPITAL CITY   CLOUDY    32  20  61 N5        30.31S
HARRISBURG     CLOUDY    32  20  61 NW6       30.30S
YORK           CLOUDY    31  21  66 N7        30.29F
$$

PAZ038>040-043-044-047-048-054-055-060>062-067>071-201600-
EASTERN PENNSYLVANIA

CITY           SKY/WX    TMP DP  RH WIND       PRES   REMARKS
SCRANTON       CLOUDY    30  20  66 N7        30.26R
MOUNT POCONO   CLOUDY    25  19  78 N6        30.20R
ALLENTOWN      CLOUDY    32  20  61 NE5       30.30R
QUAKERTOWN*    CLOUDY    32  23  69 NE3       30.30R
READING        CLOUDY    33  20  58 N6        30.30R
LANCASTER      CLOUDY    31  19  61 N3        30.30R
COATESVILLE    CLOUDY    32  23  69 NW8       30.29R
POTTSTOWN      CLOUDY    32  21  64 N6        30.31R
BLUE BELL      CLOUDY    32  23  69 CALM      30.30R
DOYLESTOWN     CLOUDY    30  21  69 N7        30.29S
WILLOW GROVE   NOT AVBL
NORTH PHILA    CLOUDY    34  20  56 NE8       30.33S
PHILADELPHIA   CLOUDY    33  21  61 NW5       30.33R
$$



USA.gov is the U.S. government's official web portal to all federal, state and local government web resources and services.